Weather History for Penn Yan, NY

Change the Weather History Date:

Thursday, April 11, 2013

  Actual Average (KITH) Record (KITH)
Temperature  
Mean Temperature 36 °F -  
Max Temperature 39 °F 48 °F 78 °F (1945)
Min Temperature 33 °F 28 °F 18 °F (1970)
Degree Days  
Heating Degree Days 29    
Moisture  
Dew Point 32 °F    
Average Humidity 85    
Maximum Humidity 96    
Minimum Humidity 70    
Precipitation  
Precipitation 0.01 in - - ()
Sea Level Pressure  
Sea Level Pressure 30.04 in    
Wind  
Wind Speed 5 mph (North)    
Max Wind Speed 8 mph    
Max Gust Speed -    
Visibility 9 miles    
Events Rain    
Averages and records for this station are not official NWS values.
T = Trace of Precipitation, MM = Missing Value Source: NWS Daily Summary

Daily Weather History Graph

Daily Weather History Graph

Search for Another Location

Airport:

Trip Planner

Search our weather history database for the weather conditions in past years. The results will help you decide how hot, cold, wet, or windy it might be!

Date:

Astronomy

Apr. 11, 2013 Rise Set
Actual Time 6:33 AM EDT 7:45 PM EDT
Civil Twilight 6:04 AM EDT 8:15 PM EDT
Nautical Twilight 5:29 AM EDT 8:50 PM EDT
Astronomical Twilight 4:52 AM EDT 9:26 PM EDT
Moon 7:01 AM EDT (4/11) 9:20 PM EDT (4/11)
Length of Visible Light 14h 11m
Length of Day
13h 12m
New Moon, 2% of the Moon is Illuminated
Apr 11
New Moon
Apr 18
First Quarter
Apr 25
Full
May 2
Last Quarter
May 9
New

Hourly Weather History & Observations

Time (EDT) Temp. Windchill Dew Point Humidity Pressure Visibility Wind Dir Wind Speed Gust Speed Precip Events Conditions
12:42 AM 39.2 °F 37.0 °F 37.4 °F 93% 29.97 in 10.0 mi North 3.5 mph - N/A   Overcast
12:53 AM 39.9 °F 36.7 °F 36.0 °F 86% 29.99 in 10.0 mi North 4.6 mph - N/A   Overcast
1:53 AM 39.9 °F 36.7 °F 36.0 °F 86% 29.97 in 10.0 mi North 4.6 mph - N/A   Overcast
2:53 AM 39.9 °F 36.7 °F 34.0 °F 79% 29.98 in 10.0 mi NNW 4.6 mph - N/A   Overcast
3:53 AM 39.9 °F 35.1 °F 34.0 °F 79% 30.01 in 10.0 mi North 6.9 mph - N/A   Overcast
4:26 AM 39.2 °F 34.2 °F 33.8 °F 81% 30.01 in 10.0 mi NNW 6.9 mph - N/A   Overcast
4:53 AM 39.0 °F 33.4 °F 33.1 °F 79% 30.04 in 10.0 mi NNW 8.1 mph - N/A   Overcast
5:53 AM 37.9 °F - 30.9 °F 76% 30.02 in 10.0 mi Calm Calm - N/A   Overcast
6:53 AM 37.0 °F 33.3 °F 28.9 °F 73% 30.02 in 10.0 mi Variable 4.6 mph - N/A   Overcast
7:53 AM 37.0 °F 31.6 °F 28.0 °F 70% 30.03 in 10.0 mi Variable 6.9 mph - 0.00 in Rain Light Rain
8:53 AM 36.0 °F 33.3 °F 28.0 °F 73% 30.04 in 10.0 mi NNE 3.5 mph - 0.00 in   Overcast
9:53 AM 34.0 °F 28.8 °F 27.0 °F 75% 30.08 in 10.0 mi North 5.8 mph - 0.00 in Rain Light Rain
10:53 AM 34.0 °F 28.0 °F 27.0 °F 75% 30.12 in 10.0 mi North 6.9 mph - 0.00 in   Overcast
11:53 AM 33.1 °F 26.9 °F 28.9 °F 85% 30.13 in 10.0 mi Variable 6.9 mph - 0.01 in Rain Light Rain
12:08 PM 33.8 °F 28.6 °F 28.4 °F 81% 30.10 in 10.0 mi Variable 5.8 mph - 0.00 in Rain Light Rain
1:53 PM 33.1 °F - 30.9 °F 92% 30.10 in 10.0 mi Calm Calm - 0.00 in   Overcast
2:53 PM 34.0 °F 31.0 °F 30.9 °F 89% 30.09 in 10.0 mi Variable 3.5 mph - N/A   Overcast
3:53 PM 34.0 °F 28.0 °F 30.9 °F 89% 30.06 in 10.0 mi Variable 6.9 mph - N/A   Overcast
4:53 PM 34.0 °F 28.8 °F 30.9 °F 89% 30.07 in 10.0 mi Variable 5.8 mph - N/A   Overcast
5:53 PM 34.0 °F 28.0 °F 30.9 °F 89% 30.06 in 9.0 mi Variable 6.9 mph - 0.00 in Rain Light Rain
6:31 PM 33.8 °F 29.6 °F 32.0 °F 93% 30.03 in 6.0 mi NNE 4.6 mph - 0.00 in   Overcast
6:53 PM 34.0 °F 28.0 °F 32.0 °F 92% 30.04 in 9.0 mi Variable 6.9 mph - 0.00 in   Overcast
7:19 PM 33.8 °F 28.6 °F 32.0 °F 93% 30.01 in 9.0 mi Variable 5.8 mph - N/A   Overcast
7:53 PM 34.0 °F 29.8 °F 32.0 °F 92% 30.04 in 8.0 mi Variable 4.6 mph - N/A   Overcast
8:53 PM 34.0 °F 31.0 °F 33.1 °F 96% 30.04 in 6.0 mi NE 3.5 mph - N/A   Overcast
9:53 PM 35.1 °F 30.1 °F 33.1 °F 92% 30.03 in 7.0 mi NNE 5.8 mph - 0.00 in   Overcast
10:53 PM 35.1 °F 30.1 °F 34.0 °F 96% 30.00 in 5.0 mi NE 5.8 mph - 0.00 in Rain Light Rain
11:53 PM 36.0 °F 32.1 °F 34.0 °F 93% 29.98 in 4.0 mi NE 4.6 mph - 0.00 in   Overcast